Weather History for Vicksburg, MS

Change the Weather History Date:

Monday, November 26, 2012

  Actual Average Record
Temperature  
Mean Temperature 59 °F 52 °F  
Max Temperature 70 °F 64 °F 86 °F (1965)
Min Temperature 48 °F 41 °F 24 °F (1950)
Degree Days  
Heating Degree Days 6 13  
Month to date heating degree days 335 245  
Since 1 July heating degree days 490 347  
Cooling Degree Days 0 0  
Month to date cooling degree days 9 12  
Year to date cooling degree days 2397 2221  
Growing Degree Days 8 (Base 50)    
Moisture  
Dew Point 58 °F    
Average Humidity 80    
Maximum Humidity 93    
Minimum Humidity 66    
Precipitation  
Precipitation 0.05 in 0.20 in 1.16 in (1948)
Month to date precipitation 1.80 4.13  
Year to date precipitation 46.09 48.26  
Sea Level Pressure  
Sea Level Pressure 30.07 in    
Wind  
Wind Speed 8 mph (SSE)    
Max Wind Speed 15 mph    
Max Gust Speed 20 mph    
Visibility 10 miles    
Events Rain , Thunderstorm    
T = Trace of Precipitation, MM = Missing Value Source: NWS Daily Summary

Daily Weather History Graph

Daily Weather History Graph

Search for Another Location

Airport:

Trip Planner

Search our weather history database for the weather conditions in past years. The results will help you decide how hot, cold, wet, or windy it might be!

Date:

Astronomy

Nov. 26, 2012 Rise Set
Actual Time 6:43 AM CST 4:59 PM CST
Civil Twilight 6:17 AM CST 5:25 PM CST
Nautical Twilight 5:47 AM CST 5:56 PM CST
Astronomical Twilight 5:17 AM CST 6:25 PM CST
Moon 3:49 PM CST (11/26) 4:57 AM CST (11/26)
Length of Visible Light 11h 08m
Length of Day
10h 15m
Waxing Gibbous, 97% of the Moon is Illuminated
Nov 26
Waxing Gibbous
Nov 28
Full
Dec 6
Last Quarter
Dec 13
New
Dec 19
First Quarter

Hourly Weather History & Observations

Time (CST) Temp. Dew Point Humidity Pressure Visibility Wind Dir Wind Speed Gust Speed Precip Events Conditions
12:53 AM 48.0 °F 39.9 °F 74% 30.09 in 10.0 mi SSE 5.8 mph - N/A   Clear
1:53 AM 48.0 °F 41.0 °F 77% 30.09 in 10.0 mi SSE 6.9 mph - N/A   Clear
2:53 AM 51.1 °F 44.1 °F 77% 30.09 in 10.0 mi SSE 8.1 mph - N/A   Mostly Cloudy
3:53 AM 51.1 °F 45.0 °F 80% 30.09 in 10.0 mi SSE 4.6 mph - N/A   Mostly Cloudy
4:53 AM 52.0 °F 46.0 °F 80% 30.08 in 10.0 mi SSE 4.6 mph - N/A   Overcast
5:39 AM 51.8 °F 48.2 °F 88% 30.07 in 10.0 mi SSE 4.6 mph - 0.02 in Thunderstorm Overcast
5:53 AM 52.0 °F 48.9 °F 89% 30.09 in 10.0 mi SE 5.8 mph - 0.02 in   Overcast
6:53 AM 53.1 °F 50.0 °F 89% 30.08 in 10.0 mi SE 5.8 mph - N/A   Overcast
7:46 AM 53.6 °F 51.8 °F 94% 30.08 in 10.0 mi ESE 5.8 mph - N/A   Overcast
7:53 AM 54.0 °F 51.1 °F 90% 30.10 in 10.0 mi SE 4.6 mph - N/A   Overcast
8:22 AM 55.4 °F 51.8 °F 88% 30.08 in 10.0 mi SE 6.9 mph - N/A   Mostly Cloudy
8:51 AM 59.0 °F 53.6 °F 82% 30.09 in 10.0 mi SE 8.1 mph - 0.00 in Rain Light Rain
8:53 AM 59.0 °F 54.0 °F 83% 30.11 in 10.0 mi SE 8.1 mph - 0.00 in Rain Light Rain
9:05 AM 60.8 °F 53.6 °F 77% 30.09 in 10.0 mi SSE 9.2 mph - 0.00 in   Overcast
9:53 AM 63.0 °F 55.9 °F 78% 30.11 in 10.0 mi South 9.2 mph - 0.00 in   Mostly Cloudy
10:53 AM 69.1 °F 57.9 °F 68% 30.09 in 10.0 mi South 10.4 mph - N/A   Mostly Cloudy
11:06 AM 69.8 °F 59.0 °F 68% 30.06 in 10.0 mi South 8.1 mph - N/A Thunderstorm Overcast
11:18 AM 69.8 °F 59.0 °F 68% 30.06 in 10.0 mi SSW 4.6 mph - N/A   Overcast
11:53 AM 66.9 °F 61.0 °F 81% 30.08 in 3.0 mi South 5.8 mph - 0.03 in Rain Light Rain
12:40 PM 66.2 °F 64.4 °F 94% 30.04 in 10.0 mi South 9.2 mph - 0.00 in   Overcast
12:49 PM 66.2 °F 64.4 °F 94% 30.03 in 10.0 mi South 10.4 mph - 0.00 in   Overcast
12:53 PM 66.9 °F 64.0 °F 90% 30.05 in 10.0 mi SSE 11.5 mph - 0.00 in   Overcast
1:01 PM 66.2 °F 64.4 °F 94% 30.03 in 10.0 mi SSE 9.2 mph - N/A   Overcast
1:53 PM 68.0 °F 64.0 °F 87% 30.04 in 10.0 mi South 10.4 mph - N/A   Overcast
2:34 PM 69.8 °F 64.4 °F 83% 30.01 in 10.0 mi South 8.1 mph - N/A   Overcast
2:53 PM 69.1 °F 64.0 °F 84% 30.03 in 10.0 mi South 9.2 mph - N/A   Overcast
3:31 PM 68.0 °F 64.4 °F 88% 30.02 in 10.0 mi SSE 9.2 mph - N/A   Overcast
3:53 PM 68.0 °F 64.0 °F 87% 30.04 in 10.0 mi SSE 5.8 mph - N/A   Overcast
4:15 PM 68.0 °F 64.4 °F 88% 30.03 in 10.0 mi SSE 8.1 mph - N/A   Overcast
4:46 PM 66.2 °F 64.4 °F 94% 30.03 in 10.0 mi SSE 9.2 mph - N/A   Mostly Cloudy
4:53 PM 66.9 °F 64.0 °F 90% 30.05 in 10.0 mi South 5.8 mph - N/A   Mostly Cloudy
5:06 PM 66.2 °F 64.4 °F 94% 30.04 in 10.0 mi SSE 8.1 mph - N/A   Overcast
5:53 PM 64.9 °F 63.0 °F 93% 30.05 in 10.0 mi SSE 8.1 mph - N/A   Clear
6:53 PM 64.0 °F 63.0 °F 96% 30.07 in 10.0 mi SSE 8.1 mph - N/A   Partly Cloudy
7:18 PM 64.4 °F 62.6 °F 94% 30.05 in 10.0 mi SSE 8.1 mph - N/A   Mostly Cloudy
7:53 PM 64.9 °F 63.0 °F 93% 30.09 in 10.0 mi SSE 5.8 mph - N/A   Mostly Cloudy
8:13 PM 64.4 °F 62.6 °F 94% 30.07 in 10.0 mi SSE 4.6 mph - N/A   Mostly Cloudy
8:28 PM 64.4 °F 62.6 °F 94% 30.07 in 10.0 mi SSE 8.1 mph - N/A   Overcast
8:53 PM 64.9 °F 63.0 °F 93% 30.09 in 10.0 mi South 10.4 mph - N/A   Overcast
9:53 PM 64.9 °F 63.0 °F 93% 30.08 in 10.0 mi SSE 9.2 mph - N/A   Scattered Clouds
10:23 PM 64.4 °F 62.6 °F 94% 30.05 in 10.0 mi South 11.5 mph - N/A   Mostly Cloudy
10:53 PM 64.9 °F 63.0 °F 93% 30.07 in 10.0 mi South 9.2 mph - N/A   Overcast
11:53 PM 64.9 °F 63.0 °F 93% 30.05 in 10.0 mi South 9.2 mph - N/A   Overcast